User: anonymous   Login
Location: Unspecified
(0.0000°N, 0.0000°E)
Time: 17:02:12
(UTC+00:00)
Language:

P83-1 Hilat - Orbit

View from above orbital plane
View from above orbital plane
View from above satellite
View from above satellite

Ground track
Ground track

The orbit data is extracted from the following two-line orbital elements,

1 14154U 83063A   18175.01160743  .00000097  00000-0  27445-4 0  9991
2 14154  82.0246 344.0218 0041841 103.4178  28.9625 14.36353524829167
Epoch (UTC): 24 June 2018 00:16:42
Eccentricity: 0.0041841
inclination: 82.0246°
perigee height: 740 km
apogee height: 800 km
right ascension of ascending node: 344.0218°
argument of perigee: 103.4178°
revolutions per day: 14.36353524
mean anomaly at epoch: 28.9625°
orbit number at epoch: 82916

The dashed part of the orbit path shows where the satellite is in the earth's shadow,  

DLR